Wetterdaten: aktuell Freitag, 18.09.2020 10:44
Datum Zeit Temp. 2m Temp. 5cm Temp. -10cm Feuchte 2m Luftdruck Regen Wind Richtung Richtung Taupunkt Windchill Windben
18.09.2020 10:44 13,3 C 21,2 C 16,5 C 67 % 1025,3 hPa 0,0 l/m 2,7 km/h (1 Bft) S-SW 202 7,3 C 13,3 C 4,2 km/h (1 Bft)
18.09.2020 10:42 13,3 C 21,2 C 16,4 C 68 % 1025,3 hPa 0,0 l/m 2,4 km/h (1 Bft) S-SW 202 7,5 C 13,3 C 4,4 km/h (1 Bft)
18.09.2020 10:40 13,2 C 20,9 C 16,3 C 68 % 1025,3 hPa 0,0 l/m 2,3 km/h (1 Bft) S-SW 202 7,4 C 13,2 C 4,4 km/h (1 Bft)
18.09.2020 10:38 13,2 C 20,8 C 16,3 C 70 % 1025,3 hPa 0,0 l/m 1,9 km/h (1 Bft) S-SO 157 7,9 C 13,2 C 4,2 km/h (1 Bft)
18.09.2020 10:36 13,1 C 20,0 C 16,3 C 70 % 1025,3 hPa 0,0 l/m 1,4 km/h (1 Bft) S-SW 202 7,8 C 13,1 C 3,9 km/h (1 Bft)
18.09.2020 10:34 13,2 C 20,0 C 16,3 C 71 % 1025,3 hPa 0,0 l/m 1,1 km/h (1 Bft) S-SO 157 8,1 C 13,2 C 3,5 km/h (1 Bft)
18.09.2020 10:32 13,1 C 19,9 C 16,3 C 71 % 1025,3 hPa 0,0 l/m 1,0 km/h (0 Bft) SO 135 8,0 C 13,1 C 3,5 km/h (1 Bft)
18.09.2020 10:30 13,1 C 19,3 C 16,2 C 72 % 1025,4 hPa 0,0 l/m 1,0 km/h (0 Bft) S 180 8,2 C 13,1 C 3,5 km/h (1 Bft)
18.09.2020 10:28 13,3 C 18,7 C 16,2 C 73 % 1025,4 hPa 0,0 l/m 0,8 km/h (0 Bft) S-SW 202 8,6 C 13,3 C 2,1 km/h (1 Bft)
18.09.2020 10:26 13,3 C 18,4 C 16,2 C 73 % 1025,4 hPa 0,0 l/m 0,6 km/h (0 Bft) O 90 8,6 C 13,3 C 2,1 km/h (1 Bft)
18.09.2020 10:24 13,1 C 17,5 C 16,2 C 73 % 1025,4 hPa 0,0 l/m 0,8 km/h (0 Bft) SO 135 8,4 C 13,1 C 2,1 km/h (1 Bft)
18.09.2020 10:22 12,8 C 17,0 C 16,2 C 74 % 1025,4 hPa 0,0 l/m 1,1 km/h (1 Bft) S-SW 202 8,3 C 12,8 C 2,3 km/h (1 Bft)
18.09.2020 10:20 12,8 C 17,0 C 16,2 C 76 % 1025,4 hPa 0,0 l/m 1,6 km/h (1 Bft) S-SW 202 8,7 C 12,8 C 2,3 km/h (1 Bft)
18.09.2020 10:18 12,9 C 17,2 C 16,1 C 77 % 1025,4 hPa 0,0 l/m 2,1 km/h (1 Bft) S-SW 202 9,0 C 12,9 C 2,3 km/h (1 Bft)
18.09.2020 10:16 12,7 C 17,3 C 16,1 C 77 % 1025,4 hPa 0,0 l/m 2,1 km/h (1 Bft) SO 135 8,8 C 12,7 C 2,5 km/h (1 Bft)
18.09.2020 10:14 12,5 C 17,1 C 16,1 C 78 % 1025,4 hPa 0,0 l/m 2,1 km/h (1 Bft) O-SO 112 8,8 C 12,5 C 4,2 km/h (1 Bft)
18.09.2020 10:12 12,6 C 17,0 C 16,1 C 79 % 1025,4 hPa 0,0 l/m 1,9 km/h (1 Bft) O-NO 67 9,1 C 12,6 C 5,0 km/h (1 Bft)
18.09.2020 10:10 12,4 C 17,1 C 16,1 C 79 % 1025,2 hPa 0,0 l/m 1,3 km/h (1 Bft) O 90 8,9 C 12,4 C 5,0 km/h (1 Bft)
18.09.2020 10:08 12,1 C 17,0 C 16,1 C 79 % 1025,2 hPa 0,0 l/m 0,8 km/h (0 Bft) O 90 8,6 C 12,1 C 4,2 km/h (1 Bft)
18.09.2020 10:06 12,2 C 16,6 C 16,1 C 80 % 1025,2 hPa 0,0 l/m 0,3 km/h (0 Bft) O 90 8,9 C 12,2 C 0,0 km/h (0 Bft)
18.09.2020 10:04 12,1 C 16,6 C 16,1 C 80 % 1025,2 hPa 0,0 l/m 0,5 km/h (0 Bft) O-NO 67 8,8 C 12,1 C 2,7 km/h (1 Bft)
18.09.2020 10:02 12,1 C 16,4 C 16,1 C 80 % 1025,2 hPa 0,0 l/m 0,5 km/h (0 Bft) O 90 8,8 C 12,1 C 2,7 km/h (1 Bft)
18.09.2020 10:00 12,1 C 16,2 C 16,1 C 81 % 1025,2 hPa 0,0 l/m 0,5 km/h (0 Bft) O 90 8,9 C 12,1 C 0,0 km/h (0 Bft)
18.09.2020 09:58 12,2 C 15,9 C 16,1 C 81 % 1025,2 hPa 0,0 l/m 0,5 km/h (0 Bft) NW 315 9,0 C 12,2 C 2,3 km/h (1 Bft)
18.09.2020 09:56 12,0 C 15,8 C 16,0 C 81 % 1025,2 hPa 0,0 l/m 0,8 km/h (0 Bft) O-NO 67 8,8 C 12,0 C 2,9 km/h (1 Bft)
18.09.2020 09:54 12,1 C 15,7 C 16,0 C 82 % 1025,2 hPa 0,0 l/m 1,1 km/h (1 Bft) NO 45 9,1 C 12,1 C 2,9 km/h (1 Bft)
18.09.2020 09:52 11,9 C 15,7 C 16,0 C 82 % 1025,2 hPa 0,0 l/m 1,4 km/h (1 Bft) SO 135 8,9 C 11,9 C 0,0 km/h (0 Bft)
18.09.2020 09:50 11,7 C 15,7 C 16,0 C 82 % 1025,1 hPa 0,0 l/m 1,8 km/h (1 Bft) O-SO 112 8,7 C 11,7 C 2,1 km/h (1 Bft)
18.09.2020 09:48 11,4 C 15,4 C 16,0 C 82 % 1025,1 hPa 0,0 l/m 1,6 km/h (1 Bft) O-NO 67 8,4 C 11,4 C 2,7 km/h (1 Bft)
18.09.2020 09:46 11,0 C 15,2 C 16,0 C 83 % 1025,1 hPa 0,0 l/m 1,6 km/h (1 Bft) O-NO 67 8,2 C 11,0 C 4,2 km/h (1 Bft)
18.09.2020 09:44 10,9 C 14,8 C 16,0 C 83 % 1025,1 hPa 0,0 l/m 1,1 km/h (1 Bft) O-NO 67 8,1 C 10,9 C 4,2 km/h (1 Bft)
18.09.2020 09:42 11,0 C 14,5 C 16,0 C 83 % 1025,1 hPa 0,0 l/m 0,5 km/h (0 Bft) O-NO 67 8,2 C 11,0 C 4,1 km/h (1 Bft)
18.09.2020 09:40 11,1 C 14,7 C 16,0 C 84 % 1025,1 hPa 0,0 l/m 0,0 km/h (0 Bft) O-NO 67 8,5 C 11,1 C 2,5 km/h (1 Bft)
18.09.2020 09:38 11,0 C 14,5 C 16,0 C 85 % 1025,1 hPa 0,0 l/m 0,0 km/h (0 Bft) O-NO 67 8,6 C 11,0 C 0,0 km/h (0 Bft)
18.09.2020 09:36 11,0 C 14,2 C 16,0 C 85 % 1025,1 hPa 0,0 l/m 0,5 km/h (0 Bft) NW 315 8,6 C 11,0 C 0,0 km/h (0 Bft)
18.09.2020 09:34 11,3 C 14,3 C 16,0 C 85 % 1025,1 hPa 0,0 l/m 0,8 km/h (0 Bft) O-SO 112 8,9 C 11,3 C 0,0 km/h (0 Bft)
18.09.2020 09:32 10,7 C 13,9 C 16,0 C 86 % 1025,1 hPa 0,0 l/m 1,4 km/h (1 Bft) W 270 8,5 C 10,7 C 0,0 km/h (0 Bft)
18.09.2020 09:30 10,4 C 13,9 C 16,1 C 86 % 1025,2 hPa 0,0 l/m 2,1 km/h (1 Bft) O 90 8,2 C 10,4 C 2,3 km/h (1 Bft)
18.09.2020 09:28 10,4 C 13,6 C 16,1 C 86 % 1025,2 hPa 0,0 l/m 2,4 km/h (1 Bft) O-SO 112 8,2 C 10,4 C 4,1 km/h (1 Bft)
18.09.2020 09:26 10,3 C 13,4 C 16,1 C 87 % 1025,2 hPa 0,0 l/m 2,7 km/h (1 Bft) O-NO 67 8,2 C 10,3 C 4,1 km/h (1 Bft)
18.09.2020 09:24 10,2 C 13,0 C 16,0 C 87 % 1025,2 hPa 0,0 l/m 2,6 km/h (1 Bft) O-NO 67 8,1 C 10,2 C 4,8 km/h (1 Bft)
18.09.2020 09:22 10,0 C 12,8 C 16,0 C 87 % 1025,2 hPa 0,0 l/m 1,8 km/h (1 Bft) O-NO 67 7,9 C 10,0 C 5,2 km/h (1 Bft)
18.09.2020 09:20 9,9 C 12,7 C 16,0 C 87 % 1025,2 hPa 0,0 l/m 1,6 km/h (1 Bft) O-NO 67 7,8 C 9,9 C 5,2 km/h (1 Bft)
18.09.2020 09:18 9,7 C 12,7 C 16,0 C 87 % 1025,2 hPa 0,0 l/m 1,6 km/h (1 Bft) O-SO 112 7,6 C 9,7 C 3,9 km/h (1 Bft)
18.09.2020 09:16 9,7 C 12,6 C 16,0 C 88 % 1025,2 hPa 0,0 l/m 1,4 km/h (1 Bft) O-NO 67 7,8 C 9,7 C 2,9 km/h (1 Bft)
18.09.2020 09:14 9,6 C 12,1 C 16,0 C 88 % 1025,2 hPa 0,0 l/m 1,0 km/h (0 Bft) O-NO 67 7,7 C 9,6 C 2,9 km/h (1 Bft)
18.09.2020 09:12 9,4 C 11,8 C 16,0 C 88 % 1025,2 hPa 0,0 l/m 1,0 km/h (0 Bft) O-NO 67 7,5 C 9,4 C 2,7 km/h (1 Bft)
18.09.2020 09:10 9,6 C 11,7 C 16,0 C 88 % 1024,9 hPa 0,0 l/m 0,8 km/h (0 Bft) NO 45 7,7 C 9,6 C 2,7 km/h (1 Bft)
18.09.2020 09:08 9,6 C 11,4 C 16,0 C 88 % 1024,9 hPa 0,0 l/m 0,3 km/h (0 Bft) O-NO 67 7,7 C 9,6 C 2,7 km/h (1 Bft)
18.09.2020 09:06 9,4 C 11,2 C 16,0 C 88 % 1024,9 hPa 0,0 l/m 0,2 km/h (0 Bft) O-NO 67 7,5 C 9,4 C 1,9 km/h (1 Bft)
18.09.2020 09:04 9,3 C 11,0 C 16,0 C 88 % 1024,9 hPa 0,0 l/m 0,0 km/h (0 Bft) O-SO 112 7,4 C 9,3 C 0,0 km/h (0 Bft)
18.09.2020 09:02 9,1 C 10,9 C 16,1 C 88 % 1024,9 hPa 0,0 l/m 0,0 km/h (0 Bft) O-SO 112 7,2 C 9,1 C 0,0 km/h (0 Bft)
18.09.2020 09:00 9,0 C 11,0 C 16,1 C 88 % 1024,9 hPa 0,0 l/m 0,0 km/h (0 Bft) O-NO 67 7,1 C 9,0 C 0,0 km/h (0 Bft)
18.09.2020 08:58 8,9 C 10,8 C 16,0 C 89 % 1024,9 hPa 0,0 l/m 0,0 km/h (0 Bft) SO 135 7,2 C 8,9 C 0,0 km/h (0 Bft)
18.09.2020 08:56 8,8 C 10,6 C 16,0 C 89 % 1024,9 hPa 0,0 l/m 0,0 km/h (0 Bft) O-NO 67 7,1 C 8,8 C 0,0 km/h (0 Bft)
18.09.2020 08:54 8,8 C 10,4 C 16,0 C 89 % 1024,9 hPa 0,0 l/m 0,3 km/h (0 Bft) SO 135 7,1 C 8,8 C 0,0 km/h (0 Bft)
18.09.2020 08:52 8,6 C 10,1 C 16,0 C 89 % 1024,9 hPa 0,0 l/m 1,0 km/h (0 Bft) O-SO 112 6,9 C 8,6 C 0,0 km/h (0 Bft)
18.09.2020 08:50 8,5 C 10,0 C 16,0 C 89 % 1025,1 hPa 0,0 l/m 1,3 km/h (1 Bft) W-NW 292 6,8 C 8,5 C 0,0 km/h (0 Bft)
18.09.2020 08:48 8,1 C 10,1 C 16,0 C 89 % 1025,1 hPa 0,0 l/m 1,8 km/h (1 Bft) SO 135 6,4 C 8,1 C 0,0 km/h (0 Bft)
18.09.2020 08:46 8,1 C 10,1 C 16,1 C 89 % 1025,1 hPa 0,0 l/m 2,3 km/h (1 Bft) N-NO 22 6,4 C 8,1 C 2,5 km/h (1 Bft)
18.09.2020 08:44 7,9 C 9,8 C 16,1 C 89 % 1025,1 hPa 0,0 l/m 2,4 km/h (1 Bft) O-SO 112 6,2 C 7,9 C 4,4 km/h (1 Bft)
18.09.2020 08:42 7,7 C 9,6 C 16,1 C 89 % 1025,1 hPa 0,0 l/m 1,9 km/h (1 Bft) O-NO 67 6,0 C 7,7 C 4,4 km/h (1 Bft)
18.09.2020 08:40 7,6 C 9,4 C 16,1 C 89 % 1025,1 hPa 0,0 l/m 1,4 km/h (1 Bft) O-NO 67 5,9 C 7,6 C 3,3 km/h (1 Bft)
18.09.2020 08:38 7,2 C 9,1 C 16,1 C 88 % 1025,1 hPa 0,0 l/m 1,0 km/h (0 Bft) O-NO 67 5,3 C 7,2 C 3,7 km/h (1 Bft)
18.09.2020 08:36 6,9 C 8,5 C 16,2 C 89 % 1025,1 hPa 0,0 l/m 0,5 km/h (0 Bft) NO 45 5,2 C 6,9 C 3,7 km/h (1 Bft)
18.09.2020 08:34 6,6 C 7,8 C 16,2 C 89 % 1025,1 hPa 0,0 l/m 0,0 km/h (0 Bft) O-NO 67 4,9 C 6,6 C 0,0 km/h (0 Bft)
18.09.2020 08:32 6,3 C 6,7 C 16,2 C 89 % 1025,1 hPa 0,0 l/m 0,0 km/h (0 Bft) S-SO 157 4,6 C 6,3 C 0,0 km/h (0 Bft)
18.09.2020 08:30 6,2 C 5,7 C 16,2 C 88 % 1024,9 hPa 0,0 l/m 0,0 km/h (0 Bft) SO 135 4,4 C 6,2 C 0,0 km/h (0 Bft)
18.09.2020 08:28 5,8 C 5,6 C 16,2 C 89 % 1024,9 hPa 0,0 l/m 0,2 km/h (0 Bft) S-SO 157 4,1 C 5,8 C 0,0 km/h (0 Bft)
18.09.2020 08:26 5,8 C 5,5 C 16,2 C 89 % 1024,9 hPa 0,0 l/m 0,6 km/h (0 Bft) N 360 4,1 C 5,8 C 0,0 km/h (0 Bft)
18.09.2020 08:24 5,8 C 5,5 C 16,2 C 89 % 1024,9 hPa 0,0 l/m 0,8 km/h (0 Bft) NO 45 4,1 C 5,8 C 0,0 km/h (0 Bft)
18.09.2020 08:22 5,7 C 5,5 C 16,2 C 89 % 1024,9 hPa 0,0 l/m 0,8 km/h (0 Bft) N 360 4,0 C 5,7 C 0,0 km/h (0 Bft)
18.09.2020 08:20 5,7 C 5,5 C 16,2 C 89 % 1024,9 hPa 0,0 l/m 1,1 km/h (1 Bft) S-SO 157 4,0 C 5,7 C 1,9 km/h (1 Bft)
18.09.2020 08:18 5,7 C 5,5 C 16,2 C 89 % 1024,9 hPa 0,0 l/m 1,1 km/h (1 Bft) O-NO 67 4,0 C 5,7 C 2,9 km/h (1 Bft)
18.09.2020 08:16 5,7 C 5,5 C 16,2 C 89 % 1024,9 hPa 0,0 l/m 0,8 km/h (0 Bft) O-NO 67 4,0 C 5,7 C 2,9 km/h (1 Bft)
18.09.2020 08:14 5,7 C 5,4 C 16,3 C 89 % 1024,9 hPa 0,0 l/m 0,3 km/h (0 Bft) O-NO 67 4,0 C 5,7 C 1,9 km/h (1 Bft)
18.09.2020 08:12 5,7 C 5,4 C 16,3 C 89 % 1024,9 hPa 0,0 l/m 0,3 km/h (0 Bft) O-NO 67 4,0 C 5,7 C 2,9 km/h (1 Bft)
18.09.2020 08:10 5,6 C 5,4 C 16,3 C 89 % 1024,9 hPa 0,0 l/m 0,2 km/h (0 Bft) O-NO 67 3,9 C 5,6 C 2,9 km/h (1 Bft)
18.09.2020 08:08 5,6 C 5,3 C 16,3 C 89 % 1024,9 hPa 0,0 l/m 0,0 km/h (0 Bft) O 90 3,9 C 5,6 C 0,0 km/h (0 Bft)
18.09.2020 08:06 5,7 C 5,0 C 16,3 C 89 % 1024,9 hPa 0,0 l/m 0,0 km/h (0 Bft) O-NO 67 4,0 C 5,7 C 0,0 km/h (0 Bft)
18.09.2020 08:04 5,6 C 4,9 C 16,3 C 89 % 1024,9 hPa 0,0 l/m 0,0 km/h (0 Bft) O 90 3,9 C 5,6 C 0,0 km/h (0 Bft)
18.09.2020 08:02 5,6 C 4,8 C 16,3 C 89 % 1024,9 hPa 0,0 l/m 0,0 km/h (0 Bft) N-NO 22 3,9 C 5,6 C 0,0 km/h (0 Bft)
18.09.2020 08:00 5,5 C 4,8 C 16,3 C 89 % 1024,9 hPa 0,0 l/m 0,0 km/h (0 Bft) O-NO 67 3,8 C 5,5 C 0,0 km/h (0 Bft)
18.09.2020 07:58 5,4 C 4,8 C 16,3 C 89 % 1024,9 hPa 0,0 l/m 0,0 km/h (0 Bft) O-SO 112 3,7 C 5,4 C 0,0 km/h (0 Bft)
18.09.2020 07:56 5,5 C 4,8 C 16,3 C 89 % 1024,9 hPa 0,0 l/m 0,0 km/h (0 Bft) N 360 3,8 C 5,5 C 0,0 km/h (0 Bft)
18.09.2020 07:54 5,4 C 4,8 C 16,4 C 89 % 1024,9 hPa 0,0 l/m 0,0 km/h (0 Bft) NO 45 3,7 C 5,4 C 0,0 km/h (0 Bft)
18.09.2020 07:52 5,5 C 4,9 C 16,4 C 89 % 1024,9 hPa 0,0 l/m 0,0 km/h (0 Bft) O 90 3,8 C 5,5 C 0,0 km/h (0 Bft)
18.09.2020 07:50 5,4 C 4,9 C 16,4 C 89 % 1024,9 hPa 0,0 l/m 0,0 km/h (0 Bft) O-NO 67 3,7 C 5,4 C 0,0 km/h (0 Bft)
18.09.2020 07:48 5,5 C 4,9 C 16,4 C 89 % 1024,9 hPa 0,0 l/m 0,0 km/h (0 Bft) O-NO 67 3,8 C 5,5 C 0,0 km/h (0 Bft)
18.09.2020 07:46 5,5 C 4,9 C 16,4 C 88 % 1024,9 hPa 0,0 l/m 0,0 km/h (0 Bft) SO 135 3,7 C 5,5 C 0,0 km/h (0 Bft)
18.09.2020 07:44 5,5 C 4,7 C 16,4 C 88 % 1024,9 hPa 0,0 l/m 0,0 km/h (0 Bft) O-SO 112 3,7 C 5,5 C 0,0 km/h (0 Bft)
18.09.2020 07:42 5,4 C 4,7 C 16,4 C 88 % 1024,9 hPa 0,0 l/m 0,0 km/h (0 Bft) O 90 3,6 C 5,4 C 0,0 km/h (0 Bft)
18.09.2020 07:40 5,5 C 4,5 C 16,4 C 88 % 1024,9 hPa 0,0 l/m 0,0 km/h (0 Bft) S-SO 157 3,7 C 5,5 C 0,0 km/h (0 Bft)
18.09.2020 07:38 5,6 C 4,6 C 16,4 C 88 % 1024,9 hPa 0,0 l/m 0,0 km/h (0 Bft) NO 45 3,8 C 5,6 C 0,0 km/h (0 Bft)
18.09.2020 07:36 5,4 C 4,6 C 16,4 C 88 % 1024,9 hPa 0,0 l/m 0,0 km/h (0 Bft) N-NO 22 3,6 C 5,4 C 0,0 km/h (0 Bft)
18.09.2020 07:34 5,4 C 4,5 C 16,5 C 88 % 1024,9 hPa 0,0 l/m 0,0 km/h (0 Bft) NO 45 3,6 C 5,4 C 0,0 km/h (0 Bft)
18.09.2020 07:32 5,5 C 4,5 C 16,5 C 88 % 1024,9 hPa 0,0 l/m 0,0 km/h (0 Bft) O-SO 112 3,7 C 5,5 C 0,0 km/h (0 Bft)
18.09.2020 07:30 5,5 C 4,3 C 16,5 C 88 % 1025,0 hPa 0,0 l/m 0,0 km/h (0 Bft) O-SO 112 3,7 C 5,5 C 0,0 km/h (0 Bft)
18.09.2020 07:28 5,5 C 4,3 C 16,5 C 88 % 1025,0 hPa 0,0 l/m 0,0 km/h (0 Bft) N 360 3,7 C 5,5 C 0,0 km/h (0 Bft)
18.09.2020 07:26 5,4 C 4,3 C 16,5 C 88 % 1025,0 hPa 0,0 l/m 0,0 km/h (0 Bft) NO 45 3,6 C 5,4 C 0,0 km/h (0 Bft)
18.09.2020 07:24 5,3 C 4,1 C 16,5 C 88 % 1025,0 hPa 0,0 l/m 0,0 km/h (0 Bft) S-SO 157 3,5 C 5,3 C 0,0 km/h (0 Bft)
18.09.2020 07:22 5,3 C 4,1 C 16,5 C 88 % 1025,0 hPa 0,0 l/m 0,0 km/h (0 Bft) S 180 3,5 C 5,3 C 0,0 km/h (0 Bft)
18.09.2020 07:20 5,4 C 4,1 C 16,5 C 88 % 1025,0 hPa 0,0 l/m 0,0 km/h (0 Bft) S-SW 202 3,6 C 5,4 C 0,0 km/h (0 Bft)
18.09.2020 07:18 5,5 C 4,2 C 16,6 C 88 % 1025,0 hPa 0,0 l/m 0,0 km/h (0 Bft) O 90 3,7 C 5,5 C 0,0 km/h (0 Bft)
18.09.2020 07:16 5,5 C 4,3 C 16,6 C 88 % 1025,0 hPa 0,0 l/m 0,0 km/h (0 Bft) O 90 3,7 C 5,5 C 0,0 km/h (0 Bft)
18.09.2020 07:14 5,5 C 4,4 C 16,6 C 88 % 1025,0 hPa 0,0 l/m 0,0 km/h (0 Bft) O 90 3,7 C 5,5 C 0,0 km/h (0 Bft)
18.09.2020 07:12 5,6 C 4,3 C 16,6 C 88 % 1025,0 hPa 0,0 l/m 0,0 km/h (0 Bft) O-NO 67 3,8 C 5,6 C 0,0 km/h (0 Bft)
18.09.2020 07:10 5,5 C 4,2 C 16,6 C 88 % 1025,0 hPa 0,0 l/m 0,0 km/h (0 Bft) NO 45 3,7 C 5,5 C 0,0 km/h (0 Bft)
18.09.2020 07:08 5,5 C 4,1 C 16,6 C 88 % 1025,0 hPa 0,0 l/m 0,0 km/h (0 Bft) O-NO 67 3,7 C 5,5 C 0,0 km/h (0 Bft)
18.09.2020 07:06 5,5 C 4,1 C 16,6 C 88 % 1025,0 hPa 0,0 l/m 0,0 km/h (0 Bft) NO 45 3,7 C 5,5 C 0,0 km/h (0 Bft)
18.09.2020 07:04 5,7 C 3,9 C 16,6 C 88 % 1025,0 hPa 0,0 l/m 0,0 km/h (0 Bft) NO 45 3,9 C 5,7 C 0,0 km/h (0 Bft)
18.09.2020 07:02 5,6 C 3,9 C 16,7 C 88 % 1025,0 hPa 0,0 l/m 0,0 km/h (0 Bft) O 90 3,8 C 5,6 C 0,0 km/h (0 Bft)
18.09.2020 07:00 5,6 C 3,9 C 16,7 C 88 % 1025,0 hPa 0,0 l/m 0,0 km/h (0 Bft) S-SW 202 3,8 C 5,6 C 0,0 km/h (0 Bft)
18.09.2020 06:58 5,6 C 3,9 C 16,7 C 88 % 1025,0 hPa 0,0 l/m 0,0 km/h (0 Bft) W 270 3,8 C 5,6 C 0,0 km/h (0 Bft)
18.09.2020 06:56 5,7 C 3,8 C 16,7 C 88 % 1025,0 hPa 0,0 l/m 0,0 km/h (0 Bft) NW 315 3,9 C 5,7 C 0,0 km/h (0 Bft)
18.09.2020 06:54 5,8 C 3,9 C 16,7 C 88 % 1025,0 hPa 0,0 l/m 0,0 km/h (0 Bft) N-NO 22 4,0 C 5,8 C 0,0 km/h (0 Bft)
18.09.2020 06:52 5,8 C 3,9 C 16,7 C 88 % 1025,0 hPa 0,0 l/m 0,0 km/h (0 Bft) O-NO 67 4,0 C 5,8 C 0,0 km/h (0 Bft)
18.09.2020 06:50 5,8 C 3,9 C 16,7 C 88 % 1024,9 hPa 0,0 l/m 0,3 km/h (0 Bft) O-NO 67 4,0 C 5,8 C 0,0 km/h (0 Bft)
18.09.2020 06:48 5,9 C 3,8 C 16,7 C 88 % 1024,9 hPa 0,0 l/m 0,6 km/h (0 Bft) NO 45 4,1 C 5,9 C 0,0 km/h (0 Bft)
18.09.2020 06:46 6,1 C 3,9 C 16,8 C 87 % 1024,9 hPa 0,0 l/m 1,1 km/h (1 Bft) O-NO 67 4,1 C 6,1 C 0,0 km/h (0 Bft)
18.09.2020 06:44 6,2 C 3,9 C 16,8 C 87 % 1024,9 hPa 0,0 l/m 1,3 km/h (1 Bft) O-SO 112 4,2 C 6,2 C 0,0 km/h (0 Bft)
18.09.2020 06:42 6,2 C 4,2 C 16,8 C 87 % 1024,9 hPa 0,0 l/m 1,3 km/h (1 Bft) NO 45 4,2 C 6,2 C 2,3 km/h (1 Bft)
18.09.2020 06:40 6,2 C 4,3 C 16,8 C 86 % 1024,9 hPa 0,0 l/m 1,1 km/h (1 Bft) O-NO 67 4,0 C 6,2 C 3,1 km/h (1 Bft)
18.09.2020 06:38 6,1 C 4,3 C 16,8 C 86 % 1024,9 hPa 0,0 l/m 0,8 km/h (0 Bft) O-NO 67 3,9 C 6,1 C 3,1 km/h (1 Bft)
18.09.2020 06:36 6,2 C 4,5 C 16,8 C 86 % 1024,9 hPa 0,0 l/m 0,3 km/h (0 Bft) O-NO 67 4,0 C 6,2 C 2,3 km/h (1 Bft)
18.09.2020 06:34 6,3 C 4,5 C 16,8 C 86 % 1024,9 hPa 0,0 l/m 0,0 km/h (0 Bft) O-SO 112 4,1 C 6,3 C 1,9 km/h (1 Bft)
18.09.2020 06:32 6,3 C 4,7 C 16,8 C 86 % 1024,9 hPa 0,0 l/m 0,0 km/h (0 Bft) O-NO 67 4,1 C 6,3 C 0,0 km/h (0 Bft)
18.09.2020 06:30 6,3 C 4,9 C 16,9 C 86 % 1024,8 hPa 0,0 l/m 0,0 km/h (0 Bft) NO 45 4,1 C 6,3 C 0,0 km/h (0 Bft)
18.09.2020 06:28 6,5 C 5,1 C 16,9 C 86 % 1024,8 hPa 0,0 l/m 0,0 km/h (0 Bft) W 270 4,3 C 6,5 C 0,0 km/h (0 Bft)
18.09.2020 06:26 6,4 C 5,4 C 16,9 C 86 % 1024,8 hPa 0,0 l/m 0,0 km/h (0 Bft) N-NO 22 4,2 C 6,4 C 0,0 km/h (0 Bft)
18.09.2020 06:24 6,4 C 5,6 C 16,9 C 86 % 1024,8 hPa 0,0 l/m 0,0 km/h (0 Bft) O-SO 112 4,2 C 6,4 C 0,0 km/h (0 Bft)
18.09.2020 06:22 6,5 C 5,7 C 16,9 C 86 % 1024,8 hPa 0,0 l/m 0,2 km/h (0 Bft) SO 135 4,3 C 6,5 C 0,0 km/h (0 Bft)
18.09.2020 06:20 6,4 C 5,9 C 16,9 C 86 % 1024,8 hPa 0,0 l/m 0,2 km/h (0 Bft) NO 45 4,2 C 6,4 C 0,0 km/h (0 Bft)
18.09.2020 06:18 6,4 C 6,3 C 16,9 C 86 % 1024,8 hPa 0,0 l/m 0,2 km/h (0 Bft) NO 45 4,2 C 6,4 C 0,0 km/h (0 Bft)
18.09.2020 06:16 6,4 C 6,4 C 16,9 C 86 % 1024,8 hPa 0,0 l/m 0,2 km/h (0 Bft) O 90 4,2 C 6,4 C 2,5 km/h (1 Bft)
18.09.2020 06:14 6,4 C 6,4 C 16,9 C 86 % 1024,8 hPa 0,0 l/m 0,2 km/h (0 Bft) O-SO 112 4,2 C 6,4 C 2,5 km/h (1 Bft)
18.09.2020 06:12 6,2 C 5,5 C 17,0 C 85 % 1024,8 hPa 0,0 l/m 0,0 km/h (0 Bft) SO 135 3,9 C 6,2 C 0,0 km/h (0 Bft)
18.09.2020 06:10 6,2 C 5,5 C 17,0 C 85 % 1024,9 hPa 0,0 l/m 0,0 km/h (0 Bft) SO 135 3,9 C 6,2 C 0,0 km/h (0 Bft)
18.09.2020 06:08 6,2 C 5,5 C 17,0 C 85 % 1024,9 hPa 0,0 l/m 0,0 km/h (0 Bft) SO 135 3,9 C 6,2 C 0,0 km/h (0 Bft)
18.09.2020 06:06 6,2 C 5,5 C 17,0 C 85 % 1024,9 hPa 0,0 l/m 0,0 km/h (0 Bft) SO 135 3,9 C 6,2 C 0,0 km/h (0 Bft)
18.09.2020 06:04 6,2 C 5,5 C 17,0 C 85 % 1024,9 hPa 0,0 l/m 0,0 km/h (0 Bft) SO 135 3,9 C 6,2 C 0,0 km/h (0 Bft)
18.09.2020 06:02 6,2 C 5,5 C 17,0 C 85 % 1024,9 hPa 0,0 l/m 0,0 km/h (0 Bft) SO 135 3,9 C 6,2 C 0,0 km/h (0 Bft)
18.09.2020 06:00 6,4 C 5,4 C 17,0 C 85 % 1024,9 hPa 0,0 l/m 0,0 km/h (0 Bft) O-SO 112 4,1 C 6,4 C 0,0 km/h (0 Bft)
18.09.2020 05:58 6,5 C 5,5 C 17,0 C 85 % 1024,9 hPa 0,0 l/m 0,0 km/h (0 Bft) SO 135 4,2 C 6,5 C 0,0 km/h (0 Bft)
18.09.2020 05:56 6,5 C 5,4 C 17,1 C 85 % 1024,9 hPa 0,0 l/m 0,0 km/h (0 Bft) O-NO 67 4,2 C 6,5 C 0,0 km/h (0 Bft)
18.09.2020 05:54 6,5 C 5,1 C 17,1 C 85 % 1024,9 hPa 0,0 l/m 0,0 km/h (0 Bft) O-SO 112 4,2 C 6,5 C 0,0 km/h (0 Bft)
18.09.2020 05:52 6,6 C 5,1 C 17,1 C 85 % 1024,9 hPa 0,0 l/m 0,0 km/h (0 Bft) O-NO 67 4,3 C 6,6 C 0,0 km/h (0 Bft)
18.09.2020 05:50 6,7 C 5,0 C 17,1 C 85 % 1024,5 hPa 0,0 l/m 0,0 km/h (0 Bft) O-NO 67 4,4 C 6,7 C 0,0 km/h (0 Bft)
18.09.2020 05:48 6,7 C 5,0 C 17,1 C 85 % 1024,5 hPa 0,0 l/m 0,0 km/h (0 Bft) N-NO 22 4,4 C 6,7 C 0,0 km/h (0 Bft)
18.09.2020 05:46 6,7 C 5,0 C 17,1 C 85 % 1024,5 hPa 0,0 l/m 0,0 km/h (0 Bft) O-NO 67 4,4 C 6,7 C 0,0 km/h (0 Bft)
18.09.2020 05:44 6,7 C 5,4 C 17,1 C 85 % 1024,5 hPa 0,0 l/m 0,0 km/h (0 Bft) O-NO 67 4,4 C 6,7 C 0,0 km/h (0 Bft)
18.09.2020 05:42 6,8 C 5,1 C 17,1 C 85 % 1024,5 hPa 0,0 l/m 0,5 km/h (0 Bft) O-NO 67 4,5 C 6,8 C 0,0 km/h (0 Bft)
18.09.2020 05:40 6,8 C 4,9 C 17,1 C 85 % 1024,5 hPa 0,0 l/m 1,0 km/h (0 Bft) O-SO 112 4,5 C 6,8 C 0,0 km/h (0 Bft)
18.09.2020 05:38 6,9 C 5,0 C 17,1 C 85 % 1024,5 hPa 0,0 l/m 1,3 km/h (1 Bft) N 360 4,6 C 6,9 C 0,0 km/h (0 Bft)
18.09.2020 05:36 6,9 C 5,3 C 17,1 C 85 % 1024,5 hPa 0,0 l/m 1,3 km/h (1 Bft) NO 45 4,6 C 6,9 C 2,3 km/h (1 Bft)
18.09.2020 05:34 6,9 C 5,3 C 17,1 C 85 % 1024,5 hPa 0,0 l/m 1,3 km/h (1 Bft) O-NO 67 4,6 C 6,9 C 2,5 km/h (1 Bft)
18.09.2020 05:32 6,9 C 5,5 C 17,1 C 85 % 1024,5 hPa 0,0 l/m 1,1 km/h (1 Bft) O-NO 67 4,6 C 6,9 C 4,4 km/h (1 Bft)
18.09.2020 05:30 7,0 C 5,6 C 17,1 C 85 % 1024,3 hPa 0,0 l/m 0,8 km/h (0 Bft) O 90 4,7 C 7,0 C 4,4 km/h (1 Bft)
18.09.2020 05:28 7,1 C 5,6 C 17,1 C 85 % 1024,3 hPa 0,0 l/m 0,8 km/h (0 Bft) O-SO 112 4,8 C 7,1 C 2,5 km/h (1 Bft)
18.09.2020 05:26 7,2 C 5,6 C 17,1 C 85 % 1024,3 hPa 0,0 l/m 0,8 km/h (0 Bft) O 90 4,9 C 7,2 C 0,0 km/h (0 Bft)
18.09.2020 05:24 7,3 C 5,7 C 17,2 C 85 % 1024,3 hPa 0,0 l/m 0,8 km/h (0 Bft) SO 135 4,9 C 7,3 C 0,0 km/h (0 Bft)
18.09.2020 05:22 7,3 C 5,9 C 17,2 C 85 % 1024,3 hPa 0,0 l/m 0,8 km/h (0 Bft) O-SO 112 4,9 C 7,3 C 2,1 km/h (1 Bft)
18.09.2020 05:20 7,3 C 6,5 C 17,2 C 85 % 1024,3 hPa 0,0 l/m 0,8 km/h (0 Bft) NO 45 4,9 C 7,3 C 2,5 km/h (1 Bft)
18.09.2020 05:18 7,5 C 6,6 C 17,2 C 85 % 1024,3 hPa 0,0 l/m 0,3 km/h (0 Bft) O-SO 112 5,1 C 7,5 C 2,5 km/h (1 Bft)
18.09.2020 05:16 7,3 C 6,6 C 17,2 C 85 % 1024,3 hPa 0,0 l/m 0,2 km/h (0 Bft) O 90 4,9 C 7,3 C 0,0 km/h (0 Bft)
18.09.2020 05:14 7,3 C 6,7 C 17,2 C 85 % 1024,3 hPa 0,0 l/m 0,6 km/h (0 Bft) O-SO 112 4,9 C 7,3 C 0,0 km/h (0 Bft)
18.09.2020 05:12 7,5 C 7,0 C 17,2 C 84 % 1024,3 hPa 0,0 l/m 0,6 km/h (0 Bft) NO 45 5,0 C 7,5 C 0,0 km/h (0 Bft)
18.09.2020 05:10 7,5 C 7,3 C 17,2 C 84 % 1024,6 hPa 0,0 l/m 0,6 km/h (0 Bft) O-NO 67 5,0 C 7,5 C 0,0 km/h (0 Bft)
18.09.2020 05:08 7,5 C 7,4 C 17,2 C 84 % 1024,6 hPa 0,0 l/m 0,6 km/h (0 Bft) O 90 5,0 C 7,5 C 2,1 km/h (1 Bft)
18.09.2020 05:06 7,6 C 7,6 C 17,3 C 84 % 1024,6 hPa 0,0 l/m 0,5 km/h (0 Bft) O-NO 67 5,1 C 7,6 C 2,5 km/h (1 Bft)
18.09.2020 05:04 7,6 C 7,5 C 17,3 C 84 % 1024,6 hPa 0,0 l/m 0,3 km/h (0 Bft) O-NO 67 5,1 C 7,6 C 2,5 km/h (1 Bft)
18.09.2020 05:02 7,6 C 7,4 C 17,3 C 84 % 1024,6 hPa 0,0 l/m 0,3 km/h (0 Bft) O-NO 67 5,1 C 7,6 C 0,0 km/h (0 Bft)
18.09.2020 05:00 7,7 C 7,3 C 17,3 C 84 % 1024,6 hPa 0,0 l/m 0,6 km/h (0 Bft) O-NO 67 5,2 C 7,7 C 0,0 km/h (0 Bft)
18.09.2020 04:58 7,8 C 7,3 C 17,3 C 84 % 1024,6 hPa 0,0 l/m 0,6 km/h (0 Bft) O-NO 67 5,3 C 7,8 C 0,0 km/h (0 Bft)
18.09.2020 04:56 7,8 C 7,0 C 17,3 C 84 % 1024,6 hPa 0,0 l/m 1,0 km/h (0 Bft) O 90 5,3 C 7,8 C 0,0 km/h (0 Bft)
18.09.2020 04:54 7,8 C 6,6 C 17,3 C 84 % 1024,6 hPa 0,0 l/m 1,0 km/h (0 Bft) N-NO 22 5,3 C 7,8 C 2,7 km/h (1 Bft)
18.09.2020 04:52 7,8 C 6,6 C 17,3 C 84 % 1024,6 hPa 0,0 l/m 1,1 km/h (1 Bft) O-NO 67 5,3 C 7,8 C 2,7 km/h (1 Bft)
18.09.2020 04:50 7,9 C 6,6 C 17,4 C 84 % 1024,4 hPa 0,0 l/m 0,6 km/h (0 Bft) NO 45 5,4 C 7,9 C 2,1 km/h (1 Bft)
18.09.2020 04:48 8,0 C 6,9 C 17,4 C 84 % 1024,4 hPa 0,0 l/m 0,6 km/h (0 Bft) O-NO 67 5,5 C 8,0 C 0,0 km/h (0 Bft)
18.09.2020 04:46 8,3 C 6,9 C 17,4 C 84 % 1024,4 hPa 0,0 l/m 0,3 km/h (0 Bft) O 90 5,8 C 8,3 C 0,0 km/h (0 Bft)
18.09.2020 04:44 8,3 C 6,9 C 17,4 C 84 % 1024,4 hPa 0,0 l/m 0,2 km/h (0 Bft) O-SO 112 5,8 C 8,3 C 0,0 km/h (0 Bft)
18.09.2020 04:42 8,4 C 7,1 C 17,4 C 84 % 1024,4 hPa 0,0 l/m 0,0 km/h (0 Bft) O 90 5,9 C 8,4 C 0,0 km/h (0 Bft)
18.09.2020 04:40 8,5 C 7,1 C 17,4 C 84 % 1024,4 hPa 0,0 l/m 0,0 km/h (0 Bft) S-SO 157 6,0 C 8,5 C 0,0 km/h (0 Bft)
18.09.2020 04:38 8,6 C 7,3 C 17,4 C 84 % 1024,4 hPa 0,0 l/m 0,6 km/h (0 Bft) SO 135 6,1 C 8,6 C 0,0 km/h (0 Bft)
18.09.2020 04:36 8,8 C 7,6 C 17,4 C 84 % 1024,4 hPa 0,0 l/m 0,8 km/h (0 Bft) S-SO 157 6,2 C 8,8 C 0,0 km/h (0 Bft)
18.09.2020 04:34 9,0 C 7,8 C 17,4 C 84 % 1024,4 hPa 0,0 l/m 0,8 km/h (0 Bft) W 270 6,4 C 9,0 C 0,0 km/h (0 Bft)
18.09.2020 04:32 9,1 C 8,2 C 17,4 C 84 % 1024,4 hPa 0,0 l/m 0,8 km/h (0 Bft) NO 45 6,5 C 9,1 C 0,0 km/h (0 Bft)
18.09.2020 04:30 9,1 C 8,8 C 17,5 C 84 % 1024,7 hPa 0,0 l/m 0,8 km/h (0 Bft) O-SO 112 6,5 C 9,1 C 5,0 km/h (1 Bft)
18.09.2020 04:28 9,1 C 9,1 C 17,5 C 84 % 1024,7 hPa 0,0 l/m 0,3 km/h (0 Bft) O-NO 67 6,5 C 9,1 C 5,0 km/h (1 Bft)
18.09.2020 04:26 9,2 C 9,8 C 17,5 C 84 % 1024,7 hPa 0,0 l/m 0,0 km/h (0 Bft) SO 135 6,6 C 9,2 C 0,0 km/h (0 Bft)
18.09.2020 04:24 9,2 C 10,0 C 17,5 C 84 % 1024,7 hPa 0,0 l/m 0,0 km/h (0 Bft) O-SO 112 6,6 C 9,2 C 0,0 km/h (0 Bft)
18.09.2020 04:22 9,2 C 10,1 C 17,5 C 84 % 1024,7 hPa 0,0 l/m 0,0 km/h (0 Bft) SO 135 6,6 C 9,2 C 0,0 km/h (0 Bft)
18.09.2020 04:20 9,2 C 10,2 C 17,5 C 84 % 1024,7 hPa 0,0 l/m 0,0 km/h (0 Bft) O-SO 112 6,6 C 9,2 C 0,0 km/h (0 Bft)
18.09.2020 04:18 9,3 C 10,3 C 17,5 C 84 % 1024,7 hPa 0,0 l/m 0,0 km/h (0 Bft) NW 315 6,7 C 9,3 C 0,0 km/h (0 Bft)
18.09.2020 04:16 9,4 C 10,4 C 17,5 C 84 % 1024,7 hPa 0,0 l/m 0,0 km/h (0 Bft) SO 135 6,8 C 9,4 C 0,0 km/h (0 Bft)
18.09.2020 04:14 9,4 C 10,5 C 17,5 C 84 % 1024,7 hPa 0,0 l/m 0,0 km/h (0 Bft) O 90 6,8 C 9,4 C 0,0 km/h (0 Bft)
18.09.2020 04:12 9,4 C 10,4 C 17,5 C 83 % 1024,7 hPa 0,0 l/m 0,0 km/h (0 Bft) SO 135 6,7 C 9,4 C 0,0 km/h (0 Bft)
18.09.2020 04:10 9,4 C 10,3 C 17,5 C 83 % 1024,5 hPa 0,0 l/m 0,2 km/h (0 Bft) O-SO 112 6,7 C 9,4 C 0,0 km/h (0 Bft)
18.09.2020 04:08 9,4 C 10,3 C 17,5 C 83 % 1024,5 hPa 0,0 l/m 0,3 km/h (0 Bft) O-NO 67 6,7 C 9,4 C 0,0 km/h (0 Bft)
18.09.2020 04:06 9,3 C 10,3 C 17,6 C 83 % 1024,5 hPa 0,0 l/m 0,3 km/h (0 Bft) O-NO 67 6,6 C 9,3 C 0,0 km/h (0 Bft)
18.09.2020 04:04 9,4 C 10,3 C 17,6 C 83 % 1024,5 hPa 0,0 l/m 0,3 km/h (0 Bft) O-SO 112 6,7 C 9,4 C 0,0 km/h (0 Bft)
18.09.2020 04:02 9,4 C 10,3 C 17,6 C 83 % 1024,5 hPa 0,0 l/m 0,3 km/h (0 Bft) O-NO 67 6,7 C 9,4 C 2,3 km/h (1 Bft)
18.09.2020 04:00 9,4 C 10,5 C 17,6 C 83 % 1024,5 hPa 0,0 l/m 0,3 km/h (0 Bft) O-SO 112 6,7 C 9,4 C 2,3 km/h (1 Bft)
18.09.2020 03:58 9,4 C 10,5 C 17,6 C 83 % 1024,5 hPa 0,0 l/m 0,0 km/h (0 Bft) O-NO 67 6,7 C 9,4 C 0,0 km/h (0 Bft)
18.09.2020 03:56 9,4 C 10,4 C 17,6 C 83 % 1024,5 hPa 0,0 l/m 0,0 km/h (0 Bft) S-SW 202 6,7 C 9,4 C 0,0 km/h (0 Bft)
18.09.2020 03:54 9,4 C 10,4 C 17,6 C 83 % 1024,5 hPa 0,0 l/m 0,0 km/h (0 Bft) N-NW 337 6,7 C 9,4 C 0,0 km/h (0 Bft)
18.09.2020 03:52 9,4 C 10,5 C 17,6 C 83 % 1024,5 hPa 0,0 l/m 0,0 km/h (0 Bft) S-SO 157 6,7 C 9,4 C 0,0 km/h (0 Bft)
18.09.2020 03:50 9,5 C 10,4 C 17,6 C 82 % 1024,4 hPa 0,0 l/m 0,0 km/h (0 Bft) S-SO 157 6,6 C 9,5 C 0,0 km/h (0 Bft)
18.09.2020 03:48 9,5 C 10,5 C 17,6 C 82 % 1024,4 hPa 0,0 l/m 0,2 km/h (0 Bft) SO 135 6,6 C 9,5 C 0,0 km/h (0 Bft)
18.09.2020 03:46 9,5 C 10,5 C 17,6 C 82 % 1024,4 hPa 0,0 l/m 0,3 km/h (0 Bft) SO 135 6,6 C 9,5 C 0,0 km/h (0 Bft)
18.09.2020 03:44 9,5 C 10,4 C 17,7 C 82 % 1024,4 hPa 0,0 l/m 0,8 km/h (0 Bft) O-NO 67 6,6 C 9,5 C 0,0 km/h (0 Bft)
18.09.2020 03:42 9,5 C 10,5 C 17,7 C 82 % 1024,4 hPa 0,0 l/m 1,0 km/h (0 Bft) O 90 6,6 C 9,5 C 0,0 km/h (0 Bft)
18.09.2020 03:40 9,5 C 10,6 C 17,7 C 82 % 1024,4 hPa 0,0 l/m 1,0 km/h (0 Bft) O-NO 67 6,6 C 9,5 C 2,3 km/h (1 Bft)
18.09.2020 03:38 9,6 C 10,6 C 17,7 C 82 % 1024,4 hPa 0,0 l/m 1,0 km/h (0 Bft) O-NO 67 6,7 C 9,6 C 2,7 km/h (1 Bft)
18.09.2020 03:36 9,6 C 10,7 C 17,7 C 82 % 1024,4 hPa 0,0 l/m 0,6 km/h (0 Bft) O-NO 67 6,7 C 9,6 C 2,9 km/h (1 Bft)
18.09.2020 03:34 9,6 C 10,7 C 17,7 C 82 % 1024,4 hPa 0,0 l/m 0,3 km/h (0 Bft) O-NO 67 6,7 C 9,6 C 2,9 km/h (1 Bft)
18.09.2020 03:32 9,7 C 10,7 C 17,7 C 81 % 1024,4 hPa 0,0 l/m 0,0 km/h (0 Bft) O-SO 112 6,6 C 9,7 C 0,0 km/h (0 Bft)
18.09.2020 03:30 9,7 C 10,6 C 17,7 C 81 % 1024,5 hPa 0,0 l/m 0,2 km/h (0 Bft) SW 225 6,6 C 9,7 C 0,0 km/h (0 Bft)
18.09.2020 03:28 9,8 C 10,5 C 17,7 C 81 % 1024,5 hPa 0,0 l/m 0,2 km/h (0 Bft) SW 225 6,7 C 9,8 C 0,0 km/h (0 Bft)
18.09.2020 03:26 9,8 C 10,7 C 17,7 C 81 % 1024,5 hPa 0,0 l/m 0,3 km/h (0 Bft) SW 225 6,7 C 9,8 C 0,0 km/h (0 Bft)
18.09.2020 03:24 9,8 C 10,8 C 17,7 C 81 % 1024,5 hPa 0,0 l/m 0,5 km/h (0 Bft) NW 315 6,7 C 9,8 C 0,0 km/h (0 Bft)
18.09.2020 03:22 9,8 C 10,9 C 17,8 C 81 % 1024,5 hPa 0,0 l/m 1,0 km/h (0 Bft) S-SW 202 6,7 C 9,8 C 0,0 km/h (0 Bft)
18.09.2020 03:20 9,8 C 10,8 C 17,8 C 81 % 1024,5 hPa 0,0 l/m 1,6 km/h (1 Bft) O 90 6,7 C 9,8 C 0,0 km/h (0 Bft)
18.09.2020 03:18 9,8 C 10,8 C 17,8 C 81 % 1024,5 hPa 0,0 l/m 1,6 km/h (1 Bft) O-SO 112 6,7 C 9,8 C 1,9 km/h (1 Bft)
18.09.2020 03:16 9,9 C 10,9 C 17,8 C 80 % 1024,5 hPa 0,0 l/m 1,6 km/h (1 Bft) O-NO 67 6,6 C 9,9 C 3,5 km/h (1 Bft)
18.09.2020 03:14 9,9 C 10,9 C 17,8 C 80 % 1024,5 hPa 0,0 l/m 1,6 km/h (1 Bft) O 90 6,6 C 9,9 C 3,5 km/h (1 Bft)
18.09.2020 03:12 10,2 C 10,7 C 17,8 C 79 % 1024,5 hPa 0,0 l/m 1,6 km/h (1 Bft) W 270 6,7 C 10,2 C 0,0 km/h (0 Bft)
18.09.2020 03:10 10,2 C 10,7 C 17,8 C 79 % 1024,7 hPa 0,0 l/m 1,6 km/h (1 Bft) W 270 6,7 C 10,2 C 0,0 km/h (0 Bft)
18.09.2020 03:08 10,2 C 10,7 C 17,8 C 79 % 1024,7 hPa 0,0 l/m 1,6 km/h (1 Bft) W 270 6,7 C 10,2 C 0,0 km/h (0 Bft)
18.09.2020 03:06 10,2 C 10,7 C 17,8 C 79 % 1024,7 hPa 0,0 l/m 1,6 km/h (1 Bft) W 270 6,7 C 10,2 C 0,0 km/h (0 Bft)
18.09.2020 03:04 10,2 C 10,7 C 17,8 C 79 % 1024,7 hPa 0,0 l/m 1,6 km/h (1 Bft) W 270 6,7 C 10,2 C 0,0 km/h (0 Bft)
18.09.2020 03:02 10,2 C 10,7 C 17,8 C 79 % 1024,7 hPa 0,0 l/m 1,6 km/h (1 Bft) W 270 6,7 C 10,2 C 2,3 km/h (1 Bft)
18.09.2020 03:00 10,3 C 10,7 C 17,9 C 78 % 1024,7 hPa 0,0 l/m 2,3 km/h (1 Bft) O 90 6,6 C 10,3 C 3,7 km/h (1 Bft)
18.09.2020 02:58 10,3 C 10,6 C 17,9 C 78 % 1024,7 hPa 0,0 l/m 2,1 km/h (1 Bft) O-NO 67 6,6 C 10,3 C 3,7 km/h (1 Bft)
18.09.2020 02:56 10,4 C 10,6 C 17,9 C 78 % 1024,7 hPa 0,0 l/m 2,6 km/h (1 Bft) SO 135 6,7 C 10,4 C 2,9 km/h (1 Bft)
18.09.2020 02:54 10,4 C 10,6 C 17,9 C 77 % 1024,7 hPa 0,0 l/m 3,1 km/h (1 Bft) O-NO 67 6,5 C 10,4 C 2,9 km/h (1 Bft)
18.09.2020 02:52 10,5 C 10,5 C 17,9 C 77 % 1024,7 hPa 0,0 l/m 3,4 km/h (1 Bft) SO 135 6,6 C 10,5 C 6,0 km/h (2 Bft)
18.09.2020 02:50 10,6 C 10,5 C 17,9 C 77 % 1024,6 hPa 0,0 l/m 3,1 km/h (1 Bft) O-NO 67 6,7 C 10,6 C 6,0 km/h (2 Bft)
18.09.2020 02:48 10,7 C 10,5 C 17,9 C 77 % 1024,6 hPa 0,0 l/m 2,9 km/h (1 Bft) O-NO 67 6,8 C 10,7 C 10,0 km/h (2 Bft)
18.09.2020 02:46 10,7 C 10,4 C 17,9 C 77 % 1024,6 hPa 0,0 l/m 3,1 km/h (1 Bft) O-NO 67 6,8 C 10,7 C 10,2 km/h (2 Bft)
18.09.2020 02:44 10,8 C 10,5 C 17,9 C 78 % 1024,6 hPa 0,0 l/m 2,7 km/h (1 Bft) O-NO 67 7,1 C 10,8 C 10,2 km/h (2 Bft)
18.09.2020 02:42 10,8 C 10,6 C 18,0 C 79 % 1024,6 hPa 0,0 l/m 2,3 km/h (1 Bft) NO 45 7,3 C 10,8 C 5,8 km/h (2 Bft)
18.09.2020 02:40 10,8 C 10,4 C 18,0 C 79 % 1024,6 hPa 0,0 l/m 2,3 km/h (1 Bft) O-NO 67 7,3 C 10,8 C 4,8 km/h (1 Bft)
18.09.2020 02:38 10,8 C 10,6 C 18,0 C 79 % 1024,6 hPa 0,0 l/m 1,9 km/h (1 Bft) SO 135 7,3 C 10,8 C 5,0 km/h (1 Bft)
18.09.2020 02:36 10,9 C 10,8 C 18,0 C 80 % 1024,6 hPa 0,0 l/m 1,6 km/h (1 Bft) O-SO 112 7,6 C 10,9 C 5,0 km/h (1 Bft)
18.09.2020 02:34 10,9 C 10,7 C 18,0 C 80 % 1024,6 hPa 0,0 l/m 1,9 km/h (1 Bft) O 90 7,6 C 10,9 C 5,0 km/h (1 Bft)
18.09.2020 02:32 10,8 C 11,0 C 18,0 C 81 % 1024,6 hPa 0,0 l/m 1,9 km/h (1 Bft) O-SO 112 7,7 C 10,8 C 3,7 km/h (1 Bft)
18.09.2020 02:30 10,9 C 11,2 C 18,0 C 81 % 1024,7 hPa 0,0 l/m 2,3 km/h (1 Bft) O-NO 67 7,8 C 10,9 C 3,5 km/h (1 Bft)
18.09.2020 02:28 10,9 C 11,1 C 18,0 C 81 % 1024,7 hPa 0,0 l/m 2,6 km/h (1 Bft) O-NO 67 7,8 C 10,9 C 0,0 km/h (0 Bft)
18.09.2020 02:26 11,0 C 11,2 C 18,0 C 81 % 1024,7 hPa 0,0 l/m 3,4 km/h (1 Bft) S 180 7,9 C 11,0 C 9,5 km/h (2 Bft)
18.09.2020 02:24 11,0 C 11,3 C 18,0 C 82 % 1024,7 hPa 0,0 l/m 3,5 km/h (1 Bft) N-NO 22 8,0 C 11,0 C 7,9 km/h (2 Bft)
18.09.2020 02:22 11,1 C 11,3 C 18,0 C 82 % 1024,7 hPa 0,0 l/m 3,4 km/h (1 Bft) O-NO 67 8,1 C 11,1 C 6,6 km/h (2 Bft)
18.09.2020 02:20 11,1 C 11,2 C 18,0 C 82 % 1024,7 hPa 0,0 l/m 2,7 km/h (1 Bft) O-NO 67 8,1 C 11,1 C 6,6 km/h (2 Bft)
18.09.2020 02:18 11,2 C 11,2 C 18,1 C 82 % 1024,7 hPa 0,0 l/m 2,4 km/h (1 Bft) O 90 8,2 C 11,2 C 9,3 km/h (2 Bft)
18.09.2020 02:16 11,3 C 11,3 C 18,1 C 83 % 1024,7 hPa 0,0 l/m 1,8 km/h (1 Bft) O-NO 67 8,5 C 11,3 C 9,3 km/h (2 Bft)
18.09.2020 02:14 11,3 C 11,4 C 18,1 C 83 % 1024,7 hPa 0,0 l/m 1,1 km/h (1 Bft) N-NO 22 8,5 C 11,3 C 7,9 km/h (2 Bft)
18.09.2020 02:12 11,4 C 11,4 C 18,1 C 84 % 1024,7 hPa 0,0 l/m 0,8 km/h (0 Bft) S-SO 157 8,8 C 11,4 C 4,6 km/h (1 Bft)
18.09.2020 02:10 11,4 C 11,5 C 18,1 C 85 % 1024,7 hPa 0,0 l/m 0,6 km/h (0 Bft) N 360 9,0 C 11,4 C 6,0 km/h (2 Bft)
18.09.2020 02:08 11,4 C 11,7 C 18,1 C 85 % 1024,7 hPa 0,0 l/m 0,6 km/h (0 Bft) O-NO 67 9,0 C 11,4 C 6,0 km/h (2 Bft)
18.09.2020 02:06 11,5 C 11,7 C 18,1 C 86 % 1024,7 hPa 0,0 l/m 0,3 km/h (0 Bft) SW 225 9,2 C 11,5 C 0,0 km/h (0 Bft)
18.09.2020 02:04 11,6 C 11,8 C 18,1 C 86 % 1024,7 hPa 0,0 l/m 0,3 km/h (0 Bft) NW 315 9,3 C 11,6 C 3,3 km/h (1 Bft)
18.09.2020 02:02 11,5 C 11,9 C 18,1 C 87 % 1024,7 hPa 0,0 l/m 0,6 km/h (0 Bft) O-NO 67 9,4 C 11,5 C 3,3 km/h (1 Bft)
18.09.2020 02:00 11,6 C 12,1 C 18,1 C 87 % 1024,7 hPa 0,0 l/m 1,4 km/h (1 Bft) NW 315 9,5 C 11,6 C 2,3 km/h (1 Bft)
18.09.2020 01:58 11,6 C 12,4 C 18,1 C 87 % 1024,7 hPa 0,0 l/m 1,6 km/h (1 Bft) NW 315 9,5 C 11,6 C 0,0 km/h (0 Bft)
18.09.2020 01:56 11,6 C 12,5 C 18,1 C 87 % 1024,7 hPa 0,0 l/m 1,6 km/h (1 Bft) SO 135 9,5 C 11,6 C 7,3 km/h (2 Bft)
18.09.2020 01:54 11,7 C 12,8 C 18,1 C 87 % 1024,7 hPa 0,0 l/m 2,1 km/h (1 Bft) O 90 9,6 C 11,7 C 4,1 km/h (1 Bft)
18.09.2020 01:52 11,6 C 12,6 C 18,1 C 87 % 1024,7 hPa 0,0 l/m 2,7 km/h (1 Bft) W-NW 292 9,5 C 11,6 C 7,1 km/h (2 Bft)
18.09.2020 01:50 11,6 C 12,7 C 18,2 C 87 % 1024,4 hPa 0,0 l/m 2,4 km/h (1 Bft) NW 315 9,5 C 11,6 C 7,1 km/h (2 Bft)
18.09.2020 01:48 11,7 C 12,8 C 18,2 C 88 % 1024,4 hPa 0,0 l/m 1,9 km/h (1 Bft) NW 315 9,8 C 11,7 C 0,0 km/h (0 Bft)
18.09.2020 01:46 11,7 C 12,9 C 18,2 C 88 % 1024,4 hPa 0,0 l/m 2,4 km/h (1 Bft) SO 135 9,8 C 11,7 C 6,8 km/h (2 Bft)
18.09.2020 01:44 11,7 C 12,7 C 18,2 C 88 % 1024,4 hPa 0,0 l/m 2,7 km/h (1 Bft) NW 315 9,8 C 11,7 C 6,0 km/h (2 Bft)
18.09.2020 01:42 11,8 C 13,2 C 18,2 C 88 % 1024,4 hPa 0,0 l/m 1,9 km/h (1 Bft) W-NW 292 9,9 C 11,8 C 5,8 km/h (2 Bft)
18.09.2020 01:40 11,8 C 13,2 C 18,2 C 88 % 1024,4 hPa 0,0 l/m 1,1 km/h (1 Bft) W-NW 292 9,9 C 11,8 C 3,5 km/h (1 Bft)
18.09.2020 01:38 11,9 C 13,1 C 18,2 C 88 % 1024,4 hPa 0,0 l/m 0,8 km/h (0 Bft) W-NW 292 10,0 C 11,9 C 4,6 km/h (1 Bft)
18.09.2020 01:36 11,9 C 13,1 C 18,2 C 88 % 1024,4 hPa 0,0 l/m 0,6 km/h (0 Bft) NW 315 10,0 C 11,9 C 4,6 km/h (1 Bft)
18.09.2020 01:34 12,0 C 13,1 C 18,2 C 88 % 1024,4 hPa 0,0 l/m 0,2 km/h (0 Bft) NW 315 10,1 C 12,0 C 3,3 km/h (1 Bft)
18.09.2020 01:32 12,0 C 13,3 C 18,2 C 88 % 1024,4 hPa 0,0 l/m 0,0 km/h (0 Bft) O-NO 67 10,1 C 12,0 C 0,0 km/h (0 Bft)
18.09.2020 01:30 12,1 C 13,4 C 18,2 C 88 % 1024,6 hPa 0,0 l/m 0,0 km/h (0 Bft) N 360 10,2 C 12,1 C 0,0 km/h (0 Bft)
18.09.2020 01:28 12,0 C 13,4 C 18,2 C 88 % 1024,6 hPa 0,0 l/m 0,0 km/h (0 Bft) O-NO 67 10,1 C 12,0 C 2,3 km/h (1 Bft)
18.09.2020 01:26 12,0 C 13,3 C 18,2 C 88 % 1024,6 hPa 0,0 l/m 0,0 km/h (0 Bft) N 360 10,1 C 12,0 C 2,3 km/h (1 Bft)
18.09.2020 01:24 12,0 C 13,4 C 18,2 C 88 % 1024,6 hPa 0,0 l/m 0,0 km/h (0 Bft) W 270 10,1 C 12,0 C 0,0 km/h (0 Bft)
18.09.2020 01:22 12,0 C 13,4 C 18,1 C 88 % 1024,6 hPa 0,0 l/m 0,0 km/h (0 Bft) O-NO 67 10,1 C 12,0 C 0,0 km/h (0 Bft)
18.09.2020 01:20 12,0 C 13,3 C 18,1 C 88 % 1024,6 hPa 0,0 l/m 0,0 km/h (0 Bft) SO 135 10,1 C 12,0 C 0,0 km/h (0 Bft)
18.09.2020 01:18 12,1 C 13,3 C 18,1 C 88 % 1024,6 hPa 0,0 l/m 0,0 km/h (0 Bft) SO 135 10,2 C 12,1 C 0,0 km/h (0 Bft)
18.09.2020 01:16 12,0 C 13,3 C 18,1 C 88 % 1024,6 hPa 0,0 l/m 0,0 km/h (0 Bft) O-SO 112 10,1 C 12,0 C 0,0 km/h (0 Bft)
18.09.2020 01:14 12,1 C 13,3 C 18,1 C 88 % 1024,6 hPa 0,0 l/m 0,0 km/h (0 Bft) O-SO 112 10,2 C 12,1 C 0,0 km/h (0 Bft)
18.09.2020 01:12 12,1 C 13,3 C 18,2 C 88 % 1024,6 hPa 0,0 l/m 0,0 km/h (0 Bft) O-SO 112 10,2 C 12,1 C 0,0 km/h (0 Bft)
18.09.2020 01:10 12,1 C 13,3 C 18,2 C 88 % 1024,6 hPa 0,0 l/m 0,0 km/h (0 Bft) SO 135 10,2 C 12,1 C 0,0 km/h (0 Bft)
18.09.2020 01:08 12,1 C 13,5 C 18,2 C 88 % 1024,6 hPa 0,0 l/m 0,0 km/h (0 Bft) O-SO 112 10,2 C 12,1 C 0,0 km/h (0 Bft)
18.09.2020 01:06 12,1 C 13,4 C 18,2 C 88 % 1024,6 hPa 0,0 l/m 0,0 km/h (0 Bft) S-SO 157 10,2 C 12,1 C 0,0 km/h (0 Bft)
18.09.2020 01:04 12,1 C 13,4 C 18,2 C 88 % 1024,6 hPa 0,0 l/m 0,0 km/h (0 Bft) NW 315 10,2 C 12,1 C 0,0 km/h (0 Bft)
18.09.2020 01:02 12,1 C 13,5 C 18,2 C 88 % 1024,6 hPa 0,0 l/m 0,0 km/h (0 Bft) O-NO 67 10,2 C 12,1 C 0,0 km/h (0 Bft)
18.09.2020 01:00 12,1 C 13,5 C 18,2 C 88 % 1024,6 hPa 0,0 l/m 0,0 km/h (0 Bft) O-SO 112 10,2 C 12,1 C 0,0 km/h (0 Bft)
18.09.2020 00:58 12,1 C 13,5 C 18,2 C 88 % 1024,6 hPa 0,0 l/m 0,0 km/h (0 Bft) O-SO 112 10,2 C 12,1 C 0,0 km/h (0 Bft)
18.09.2020 00:56 12,2 C 13,4 C 18,2 C 88 % 1024,6 hPa 0,0 l/m 0,0 km/h (0 Bft) NO 45 10,3 C 12,2 C 0,0 km/h (0 Bft)
18.09.2020 00:54 12,2 C 13,4 C 18,2 C 88 % 1024,6 hPa 0,0 l/m 0,0 km/h (0 Bft) SO 135 10,3 C 12,2 C 0,0 km/h (0 Bft)
18.09.2020 00:52 12,2 C 13,5 C 18,2 C 88 % 1024,6 hPa 0,0 l/m 0,0 km/h (0 Bft) O-SO 112 10,3 C 12,2 C 0,0 km/h (0 Bft)
18.09.2020 00:50 12,2 C 13,5 C 18,2 C 88 % 1024,7 hPa 0,0 l/m 0,2 km/h (0 Bft) O-SO 112 10,3 C 12,2 C 0,0 km/h (0 Bft)
18.09.2020 00:48 12,2 C 13,5 C 18,2 C 88 % 1024,7 hPa 0,0 l/m 0,2 km/h (0 Bft) SO 135 10,3 C 12,2 C 0,0 km/h (0 Bft)
18.09.2020 00:46 12,3 C 13,6 C 18,2 C 88 % 1024,7 hPa 0,0 l/m 0,2 km/h (0 Bft) O-NO 67 10,4 C 12,3 C 1,9 km/h (1 Bft)
18.09.2020 00:44 12,3 C 13,6 C 18,2 C 88 % 1024,7 hPa 0,0 l/m 0,2 km/h (0 Bft) O-NO 67 10,4 C 12,3 C 1,9 km/h (1 Bft)
18.09.2020 00:42 12,3 C 13,6 C 18,2 C 88 % 1024,7 hPa 0,0 l/m 0,2 km/h (0 Bft) O-NO 67 10,4 C 12,3 C 2,3 km/h (1 Bft)
18.09.2020 00:40 12,4 C 13,6 C 18,2 C 88 % 1024,7 hPa 0,0 l/m 0,2 km/h (0 Bft) NO 45 10,5 C 12,4 C 2,3 km/h (1 Bft)
18.09.2020 00:38 12,3 C 13,7 C 18,2 C 88 % 1024,7 hPa 0,0 l/m 0,0 km/h (0 Bft) O 90 10,4 C 12,3 C 0,0 km/h (0 Bft)
18.09.2020 00:36 12,4 C 13,7 C 18,3 C 89 % 1024,7 hPa 0,0 l/m 0,0 km/h (0 Bft) O 90 10,6 C 12,4 C 0,0 km/h (0 Bft)
18.09.2020 00:34 12,4 C 13,7 C 18,3 C 89 % 1024,7 hPa 0,0 l/m 0,0 km/h (0 Bft) O-SO 112 10,6 C 12,4 C 0,0 km/h (0 Bft)
18.09.2020 00:32 12,5 C 13,7 C 18,3 C 89 % 1024,7 hPa 0,0 l/m 0,0 km/h (0 Bft) O-SO 112 10,7 C 12,5 C 0,0 km/h (0 Bft)
18.09.2020 00:30 12,5 C 13,8 C 18,3 C 89 % 1024,5 hPa 0,0 l/m 0,0 km/h (0 Bft) NO 45 10,7 C 12,5 C 0,0 km/h (0 Bft)
18.09.2020 00:28 12,5 C 13,8 C 18,3 C 89 % 1024,5 hPa 0,0 l/m 0,0 km/h (0 Bft) O 90 10,7 C 12,5 C 0,0 km/h (0 Bft)
18.09.2020 00:26 12,5 C 13,8 C 18,3 C 89 % 1024,5 hPa 0,0 l/m 0,0 km/h (0 Bft) O-SO 112 10,7 C 12,5 C 0,0 km/h (0 Bft)
18.09.2020 00:24 12,5 C 13,9 C 18,3 C 89 % 1024,5 hPa 0,0 l/m 0,0 km/h (0 Bft) O 90 10,7 C 12,5 C 0,0 km/h (0 Bft)
18.09.2020 00:22 12,5 C 13,9 C 18,3 C 89 % 1024,5 hPa 0,0 l/m 0,0 km/h (0 Bft) O-NO 67 10,7 C 12,5 C 0,0 km/h (0 Bft)
18.09.2020 00:20 12,5 C 13,9 C 18,3 C 89 % 1024,5 hPa 0,0 l/m 0,0 km/h (0 Bft) SO 135 10,7 C 12,5 C 0,0 km/h (0 Bft)
18.09.2020 00:18 12,6 C 13,9 C 18,3 C 89 % 1024,5 hPa 0,0 l/m 0,0 km/h (0 Bft) N-NW 337 10,8 C 12,6 C 0,0 km/h (0 Bft)
18.09.2020 00:16 12,7 C 13,9 C 18,3 C 89 % 1024,5 hPa 0,0 l/m 0,0 km/h (0 Bft) W 270 10,9 C 12,7 C 0,0 km/h (0 Bft)
18.09.2020 00:14 12,6 C 13,9 C 18,3 C 89 % 1024,5 hPa 0,0 l/m 0,0 km/h (0 Bft) N-NW 337 10,8 C 12,6 C 0,0 km/h (0 Bft)
18.09.2020 00:12 12,6 C 14,1 C 18,4 C 89 % 1024,5 hPa 0,0 l/m 0,2 km/h (0 Bft) S-SW 202 10,8 C 12,6 C 0,0 km/h (0 Bft)
18.09.2020 00:10 12,6 C 14,1 C 18,4 C 89 % 1024,7 hPa 0,0 l/m 0,2 km/h (0 Bft) S-SW 202 10,8 C 12,6 C 0,0 km/h (0 Bft)
18.09.2020 00:08 12,6 C 14,1 C 18,4 C 89 % 1024,7 hPa 0,0 l/m 0,2 km/h (0 Bft) S-SW 202 10,8 C 12,6 C 0,0 km/h (0 Bft)
18.09.2020 00:06 12,6 C 14,1 C 18,4 C 89 % 1024,7 hPa 0,0 l/m 0,2 km/h (0 Bft) S-SW 202 10,8 C 12,6 C 0,0 km/h (0 Bft)
18.09.2020 00:04 12,6 C 14,1 C 18,4 C 89 % 1024,7 hPa 0,0 l/m 0,2 km/h (0 Bft) S-SW 202 10,8 C 12,6 C 0,0 km/h (0 Bft)
18.09.2020 00:02 12,6 C 14,1 C 18,4 C 89 % 1024,7 hPa 0,0 l/m 0,2 km/h (0 Bft) S-SW 202 10,8 C 12,6 C 0,0 km/h (0 Bft)
18.09.2020 00:00 12,6 C 14,0 C 18,4 C 89 % 1024,7 hPa 0,0 l/m 0,2 km/h (0 Bft) S-SW 202 10,8 C 12,6 C 0,0 km/h (0 Bft)
_ Min-Zeit 07:22 06:48 08:48 10:44 05:12 - 00:14 - - 07:22 07:22 00:00
Minimum _ 5,3 C 3,8 C 16,0 C 67 % 1024,3 hPa - 0,0 km/h (0 Bft) - - 3,5 C 5,3 C 0,0 km/h (0 Bft)
_ Max-Zeit 10:26 10:42 00:00 00:00 10:12 00:00 02:24 - - 00:16 10:26 02:44
Maximum _ 13,3 C 21,2 C 18,4 C 89 % 1025,4 hPa 0,0 l/m 3,5 km/h
N-NO (1 Bft)
- - 10,9 C 13,3 C 10,2 km/h
O-NO (2 Bft)
Durchschnitt _ 9,3 C 10,0 C 17,2 C 85 % 1024,8 hPa #0,0 l/m 0,7 km/h (0 Bft) O-NO - 6,8 C 9,3 C 1,6 km/h (1 Bft)